カタログに戻る

STARLINK-31584

運用中通信VLEO
NORAD 59862·PAYLOAD·🇺🇸 United States

打ち上げ May 24, 2024 から Cape Canaveral Space Force Station

Loading…

次のパス (今後24時間)

TLE

最新Source: CelesTrak SupGP

元期: Sep 14, 2026, 22:15 UTC

1 59862C 24098E   26257.92756944  .00014266  00000+0  51676-3 0  2574
2 59862  43.0020 289.1418 0001638 268.5737 295.8218 15.27567417    11

AllMySatでSTARLINK-31584をリアルタイム追跡

Download on the App Store